Location: Unspecified
(0.0000°N, 0.0000°E)
Time: 23:06:27
(UTC+00:00)

Explorer 7 - All Passes

Search period start: 14 February 2016 00:00
Search period end: 24 February 2016 00:00
Orbit: 487 x 688 km, 50.3° (Epoch: 14 February)

Date Brightness Start Highest point End Pass type
(mag) Time Alt. Az. Time Alt. Az. Time Alt. Az.
14 Feb - 00:00:52 10° NNW 00:05:31 41° NE 00:10:03 10° ESE night (unlit)
14 Feb - 01:43:11 10° W 01:46:04 16° SW 01:48:54 10° SSW night (unlit)
14 Feb - 12:04:49 10° SSW 12:08:31 52° SE 12:12:17 10° NE daylight
15 Feb - 00:07:16 10° NW 00:12:13 87° NE 00:17:02 10° SE night (unlit)
15 Feb - 12:11:29 10° SW 12:15:11 59° NW 12:19:01 10° NNE daylight
15 Feb - 22:35:25 10° NNE 22:38:16 15° NE 22:41:06 10° E night (unlit)
16 Feb - 00:14:12 10° NW 00:18:54 44° SW 00:23:29 10° SSE night (unlit)
16 Feb - 10:39:20 10° SSE 10:41:31 15° SE 10:43:41 10° E daylight
16 Feb - 12:18:49 10° WSW 12:21:55 24° NW 12:25:04 10° N daylight
16 Feb - 22:40:42 10° N 22:45:01 30° NE 22:49:17 10° ESE night (unlit)
17 Feb - 00:21:48 10° WNW 00:25:36 22° SW 00:29:19 10° S night (unlit)
17 Feb - 10:44:46 10° SSW 10:48:12 33° SE 10:51:40 10° ENE daylight
17 Feb - 12:27:53 10° WNW 12:28:39 10° NW 12:29:25 10° NW daylight
17 Feb - 22:46:49 10° NNW 22:51:42 62° NE 22:56:32 10° SE night (unlit)
18 Feb - 00:31:08 10° WSW 00:32:19 11° SW 00:33:29 10° SW night (unlit)
18 Feb - 10:51:06 10° SW 10:54:52 88° SE 10:58:40 10° NE daylight
18 Feb - 21:16:31 10° NE 21:17:42 11° NE 21:18:53 10° ENE night (unlit)
18 Feb - 22:53:28 10° NW 22:58:22 63° SW 23:03:13 10° SSE night (unlit)
19 Feb - 10:58:04 10° WSW 11:01:32 35° NW 11:05:01 10° NNE daylight
19 Feb - 21:20:39 10° N 21:24:26 22° NE 21:28:14 10° ESE night (unlit)
19 Feb - 23:00:41 10° WNW 23:05:02 31° SW 23:09:20 10° S night (unlit)
20 Feb - 09:24:48 10° S 09:27:49 22° SE 09:30:48 10° ENE daylight
20 Feb - 11:05:58 10° W 11:08:13 15° NW 11:10:29 10° NNW daylight
20 Feb - 21:26:26 10° NNW 21:31:07 44° NE 21:35:49 10° SE night (unlit)
20 Feb - 23:08:47 10° W 23:11:43 16° SW 23:14:37 10° SSW night (unlit)
21 Feb - 09:30:47 10° SSW 09:34:28 56° SE 09:38:09 10° NE daylight
21 Feb - 21:32:49 10° NW 21:37:46 89° SW 21:42:42 10° SE night (unlit)
22 Feb - 09:37:25 10° SW 09:41:07 54° NW 09:44:47 10° NNE daylight
22 Feb - 20:00:51 10° NNE 20:03:48 16° NE 20:06:47 10° E visible
22 Feb - 21:39:43 10° NW 21:44:24 43° SW 21:49:05 10° SSE night (unlit)
23 Feb - 08:05:01 10° SSE 08:07:20 16° SE 08:09:38 10° E daylight
23 Feb - 09:44:46 10° WSW 09:47:44 22° NW 09:50:42 10° N daylight
23 Feb - 20:06:09 10° N 20:10:28 31° NE 20:14:50 10° ESE visible
23 Feb - 21:47:17 10° WNW 21:51:03 22° SW 21:54:49 10° S night (unlit)
